| time (UTC) | temp F | wind direction | speed MPH | gust MPH | rain 1hr in | rain 24hr in | rain mn in | humidity % | barometer mb |
| 20260506134303 | 64 | 296 | 2.0 | 7.0 | 0.00 | 0.09 | 0.01 | 67 | 1005.6 |
| 20260506133803 | 65 | 318 | 2.0 | 6.0 | 0.00 | 0.09 | 0.01 | 66 | 1005.6 |
| 20260506133304 | 66 | 289 | 2.0 | 6.0 | 0.00 | 0.10 | 0.01 | 66 | 1005.6 |
| 20260506132804 | 66 | 330 | 1.0 | 5.0 | 0.00 | 0.11 | 0.01 | 65 | 1005.6 |
| 20260506131803 | 65 | 266 | 1.0 | 5.0 | 0.00 | 0.11 | 0.01 | 62 | 1005.6 |
| 20260506131304 | 66 | 295 | 2.0 | 5.0 | 0.00 | 0.11 | 0.01 | 62 | 1005.6 |
| 20260506130804 | 66 | 220 | 0.0 | 1.0 | 0.00 | 0.12 | 0.01 | 62 | 1005.5 |
| 20260506130304 | 66 | 220 | 0.0 | 3.0 | 0.00 | 0.12 | 0.01 | 59 | 1005.4 |
| 20260506125804 | 66 | 220 | 1.0 | 3.0 | 0.00 | 0.13 | 0.01 | 57 | 1005.4 |
| 20260506125305 | 66 | 220 | 1.0 | 2.0 | 0.00 | 0.20 | 0.01 | 60 | 1005.4 |
| 20260506124804 | 66 | 215 | 1.0 | 2.0 | 0.00 | 0.35 | 0.01 | 59 | 1005.3 |
| 20260506124304 | 66 | 214 | 1.0 | 3.0 | 0.00 | 0.39 | 0.01 | 56 | 1005.3 |
| 20260506123804 | 66 | 206 | 0.0 | 1.0 | 0.00 | 0.39 | 0.01 | 59 | 1005.3 |
| 20260506123303 | 66 | 168 | 0.0 | 2.0 | 0.00 | 0.39 | 0.01 | 59 | 1005.3 |
| 20260506122305 | 66 | 226 | 0.0 | 1.0 | 0.00 | 0.39 | 0.01 | 61 | 1005.4 |
| 20260506121303 | 67 | 226 | 0.0 | 1.0 | 0.00 | 0.39 | 0.01 | 56 | 1005.6 |
| 20260506120803 | 67 | 226 | 0.0 | 1.0 | 0.00 | 0.39 | 0.01 | 58 | 1005.6 |
| 20260506120304 | 67 | 233 | 1.0 | 2.0 | 0.00 | 0.39 | 0.01 | 56 | 1005.6 |
| 20260506115306 | 67 | 158 | 0.0 | 2.0 | 0.00 | 0.39 | 0.01 | 60 | 1005.6 |
| 20260506114304 | 67 | 109 | 0.0 | 3.0 | 0.00 | 0.39 | 0.01 | 55 | 1005.8 |
| 20260506113804 | 68 | 115 | 1.0 | 3.0 | 0.00 | 0.39 | 0.01 | 56 | 1005.8 |
| 20260506113304 | 67 | 130 | 1.0 | 3.0 | 0.00 | 0.39 | 0.01 | 56 | 1005.8 |
| 20260506112804 | 67 | 261 | 1.0 | 3.0 | 0.00 | 0.39 | 0.01 | 58 | 1006.0 |
| 20260506112306 | 67 | 117 | 1.0 | 2.0 | 0.00 | 0.39 | 0.01 | 56 | 1006.0 |
| 20260506111803 | 67 | 117 | 1.0 | 2.0 | 0.00 | 0.39 | 0.01 | 58 | 1006.0 |
| 20260506111304 | 67 | 170 | 1.0 | 5.0 | 0.00 | 0.39 | 0.01 | 56 | 1006.0 |
| 20260506110803 | 68 | 125 | 1.0 | 3.0 | 0.00 | 0.39 | 0.01 | 56 | 1006.0 |
| 20260506105803 | 68 | 84 | 2.0 | 5.0 | 0.00 | 0.39 | 0.01 | 61 | 1006.5 |
| 20260506105305 | 68 | 188 | 1.0 | 5.0 | 0.00 | 0.39 | 0.01 | 59 | 1006.5 |
| 20260506104804 | 67 | 171 | 2.0 | 5.0 | 0.00 | 0.39 | 0.01 | 61 | 1006.5 |
| 20260506104304 | 67 | 114 | 1.0 | 3.0 | 0.00 | 0.39 | 0.01 | 64 | 1006.5 |
| 20260506103804 | 67 | 18 | 1.0 | 5.0 | 0.00 | 0.39 | 0.01 | 67 | 1006.5 |
| 20260506102804 | 66 | 107 | 0.0 | 2.0 | 0.00 | 0.39 | 0.01 | 72 | 1006.5 |
| 20260506101803 | 65 | 128 | 1.0 | 2.0 | 0.00 | 0.39 | 0.01 | 65 | 1006.5 |
| 20260506101303 | 66 | 128 | 1.0 | 5.0 | 0.00 | 0.39 | 0.01 | 68 | 1006.5 |
| 20260506100803 | 66 | 170 | 1.0 | 5.0 | 0.00 | 0.39 | 0.01 | 68 | 1006.5 |
| 20260506095804 | 65 | 319 | 1.0 | 3.0 | 0.00 | 0.39 | 0.01 | 69 | 1006.6 |
| 20260506094804 | 65 | 55 | 1.0 | 2.0 | 0.00 | 0.39 | 0.01 | 69 | 1006.6 |
| 20260506094303 | 65 | 55 | 1.0 | 3.0 | 0.00 | 0.39 | 0.01 | 75 | 1006.6 |
| 20260506093804 | 64 | 56 | 2.0 | 5.0 | 0.00 | 0.39 | 0.01 | 74 | 1006.6 |
| 20260506093304 | 65 | 105 | 1.0 | 5.0 | 0.00 | 0.39 | 0.01 | 74 | 1006.6 |
| 20260506092306 | 64 | 168 | 1.0 | 3.0 | 0.00 | 0.39 | 0.01 | 76 | 1006.7 |
| 20260506091804 | 64 | 117 | 1.0 | 3.0 | 0.00 | 0.39 | 0.01 | 75 | 1006.7 |
| 20260506085804 | 60 | 84 | 1.0 | 5.0 | 0.00 | 0.39 | 0.01 | 80 | 1006.7 |
| 20260506085306 | 60 | 115 | 1.0 | 3.0 | 0.00 | 0.39 | 0.01 | 81 | 1006.7 |
| 20260506084805 | 61 | 115 | 0.0 | 2.0 | 0.00 | 0.39 | 0.01 | 81 | 1006.7 |
| 20260506084304 | 60 | 117 | 1.0 | 2.0 | 0.00 | 0.39 | 0.01 | 81 | 1006.7 |
| 20260506083805 | 60 | 120 | 1.0 | 3.0 | 0.00 | 0.39 | 0.01 | 81 | 1006.7 |
| 20260506083304 | 60 | 74 | 1.0 | 3.0 | 0.00 | 0.39 | 0.01 | 82 | 1006.7 |
| 20260506081805 | 60 | 70 | 1.0 | 3.0 | 0.00 | 0.39 | 0.01 | 82 | 1006.7 |
| 20260506081304 | 61 | 84 | 1.0 | 2.0 | 0.00 | 0.39 | 0.01 | 80 | 1006.7 |
| 20260506080804 | 61 | 84 | 1.0 | 2.0 | 0.00 | 0.39 | 0.01 | 81 | 1006.7 |
| 20260506080305 | 61 | 84 | 0.0 | 2.0 | 0.00 | 0.39 | 0.01 | 79 | 1006.7 |
| 20260506073304 | 60 | 110 | 1.0 | 3.0 | 0.00 | 0.39 | 0.01 | 82 | 1006.9 |
| 20260506072805 | 59 | 110 | 0.0 | 1.0 | 0.00 | 0.39 | 0.01 | 84 | 1006.9 |
| 20260506072306 | 58 | 110 | 0.0 | 3.0 | 0.00 | 0.39 | 0.01 | 86 | 1006.9 |
| 20260506071304 | 56 | 110 | 1.0 | 2.0 | 0.00 | 0.39 | 0.01 | 91 | 1007.0 |
| 20260506070303 | 55 | 110 | 1.0 | 3.0 | 0.00 | 0.39 | 0.01 | 94 | 1006.8 |
| 20260506062305 | 52 | 101 | 1.0 | 2.0 | 0.00 | 0.39 | 0.01 | 99 | 1007.0 |
| 20260506061804 | 51 | 101 | 0.0 | 1.0 | 0.00 | 0.39 | 0.01 | 100 | 1007.0 |
| 20260506061303 | 51 | 101 | 0.0 | 1.0 | 0.00 | 0.39 | 0.01 | 100 | 1007.0 |
| 20260506060804 | 51 | 101 | 0.0 | 1.0 | 0.00 | 0.39 | 0.01 | 100 | 1006.8 |
| 20260506060303 | 51 | 101 | 0.0 | 1.0 | 0.00 | 0.39 | 0.01 | 100 | 1006.8 |
| 20260506051303 | 49 | 101 | 0.0 | 2.0 | 0.00 | 0.39 | 0.01 | 100 | 1007.2 |
| 20260506050804 | 48 | 101 | 0.0 | 1.0 | 0.00 | 0.39 | 0.01 | 100 | 1007.2 |
| 20260506050303 | 49 | 101 | 0.0 | 1.0 | 0.00 | 0.39 | 0.01 | 100 | 1007.2 |
| 20260506044804 | 48 | 101 | 0.0 | 2.0 | 0.00 | 0.39 | 0.01 | 100 | 1007.2 |
| 20260506043803 | 48 | 101 | 1.0 | 3.0 | 0.00 | 0.39 | 0.01 | 100 | 1007.2 |
| 20260506043303 | 48 | 101 | 0.0 | 1.0 | 0.00 | 0.39 | 0.01 | 100 | 1007.4 |
| 20260506042803 | 48 | 101 | 0.0 | 0.0 | 0.00 | 0.39 | 0.01 | 100 | 1007.4 |
| 20260506042305 | 48 | 101 | 0.0 | 0.0 | 0.00 | 0.39 | 0.01 | 100 | 1007.4 |
| 20260506041803 | 48 | 101 | 0.0 | 1.0 | 0.00 | 0.39 | 0.01 | 100 | 1007.4 |
| 20260506041304 | 48 | 101 | 0.0 | 0.0 | 0.00 | 0.39 | 0.01 | 100 | 1007.4 |
| 20260506040804 | 48 | 101 | 0.0 | 0.0 | 0.00 | 0.39 | 0.01 | 100 | 1007.4 |
| 20260506040304 | 48 | 101 | 0.0 | 0.0 | 0.00 | 0.39 | 0.01 | 100 | 1007.4 |
| 20260506035803 | 49 | 101 | 0.0 | 0.0 | 0.00 | 0.39 | 0.01 | 100 | 1007.4 |
| 20260506035306 | 49 | 101 | 0.0 | 1.0 | 0.00 | 0.39 | 0.01 | 100 | 1007.5 |
| 20260506034819 | 49 | 101 | 0.0 | 1.0 | 0.00 | 0.39 | 0.01 | 100 | 1007.5 |
| 20260506033303 | 49 | 101 | 1.0 | 2.0 | 0.00 | 0.39 | 0.01 | 100 | 1007.6 |
| 20260506032803 | 49 | 111 | 1.0 | 2.0 | 0.00 | 0.39 | 0.01 | 100 | 1007.6 |
| 20260506032305 | 49 | 124 | 1.0 | 2.0 | 0.00 | 0.39 | 0.01 | 100 | 1007.6 |
| 20260506031804 | 49 | 130 | 1.0 | 2.0 | 0.00 | 0.39 | 0.01 | 100 | 1007.6 |
| 20260506031304 | 49 | 130 | 0.0 | 1.0 | 0.00 | 0.39 | 0.01 | 100 | 1007.6 |
| 20260506030804 | 49 | 130 | 0.0 | 1.0 | 0.00 | 0.39 | 0.01 | 100 | 1007.3 |
| 20260506030303 | 49 | 130 | 1.0 | 3.0 | 0.00 | 0.39 | 0.01 | 100 | 1007.3 |
| 20260506025804 | 49 | 130 | 0.0 | 2.0 | 0.00 | 0.39 | 0.01 | 100 | 1007.3 |
| 20260506025305 | 49 | 298 | 0.0 | 1.0 | 0.00 | 0.39 | 0.01 | 100 | 1007.3 |
| 20260506024304 | 49 | 297 | 0.0 | 1.0 | 0.00 | 0.39 | 0.01 | 100 | 1007.3 |
| 20260506023803 | 49 | 297 | 0.0 | 3.0 | 0.00 | 0.39 | 0.01 | 100 | 1008.1 |
| 20260506023304 | 49 | 95 | 0.0 | 2.0 | 0.00 | 0.39 | 0.01 | 100 | 1008.1 |
| 20260506022305 | 49 | 95 | 0.0 | 1.0 | 0.00 | 0.39 | 0.01 | 100 | 1008.1 |
| 20260506021803 | 49 | 95 | 0.0 | 0.0 | 0.00 | 0.39 | 0.01 | 100 | 1008.1 |
| 20260506021304 | 49 | 95 | 0.0 | 1.0 | 0.00 | 0.39 | 0.01 | 100 | 1008.1 |
| 20260506020803 | 50 | 95 | 0.0 | 1.0 | 0.00 | 0.39 | 0.01 | 100 | 1008.1 |
| 20260506020304 | 50 | 95 | 0.0 | 1.0 | 0.00 | 0.39 | 0.01 | 100 | 1008.1 |
| 20260506015804 | 50 | 95 | 0.0 | 1.0 | 0.00 | 0.39 | 0.01 | 100 | 1008.0 |
| 20260506015306 | 50 | 95 | 1.0 | 2.0 | 0.00 | 0.39 | 0.01 | 100 | 1008.0 |
| 20260506014803 | 50 | 70 | 0.0 | 1.0 | 0.00 | 0.39 | 0.01 | 100 | 1008.0 |
| 20260506014304 | 50 | 70 | 0.0 | 1.0 | 0.01 | 0.39 | 0.01 | 100 | 1008.0 |
| 20260506013304 | 49 | 69 | 0.0 | 2.0 | 0.01 | 0.39 | 0.01 | 100 | 1008.1 |
| 20260506012803 | 49 | 56 | 0.0 | 2.0 | 0.01 | 0.39 | 0.01 | 100 | 1008.1 |
| 20260506012307 | 49 | 56 | 1.0 | 2.0 | 0.01 | 0.39 | 0.01 | 100 | 1008.1 |
| 20260506011804 | 49 | 55 | 1.0 | 2.0 | 0.01 | 0.39 | 0.01 | 100 | 1008.1 |
| 20260506010803 | 49 | 11 | 0.0 | 1.0 | 0.01 | 0.39 | 0.01 | 100 | 1008.1 |
| 20260506010303 | 49 | 11 | 0.0 | 1.0 | 0.01 | 0.39 | 0.01 | 100 | 1008.0 |
| 20260506005803 | 49 | 11 | 0.0 | 1.0 | 0.01 | 0.39 | 0.01 | 100 | 1008.0 |
| 20260506005305 | 49 | 11 | 0.0 | 2.0 | 0.01 | 0.39 | 0.01 | 100 | 1008.0 |
| 20260506004803 | 49 | 11 | 0.0 | 1.0 | 0.01 | 0.39 | 0.01 | 100 | 1008.0 |
| 20260506003804 | 49 | 11 | 0.0 | 0.0 | 0.00 | 0.39 | 0.00 | 100 | 1008.1 |
| 20260506003304 | 49 | 11 | 0.0 | 0.0 | 0.00 | 0.39 | 0.00 | 100 | 1008.2 |
| 20260506002804 | 49 | 11 | 0.0 | 1.0 | 0.00 | 0.39 | 0.00 | 100 | 1008.2 |
| 20260506002306 | 49 | 11 | 0.0 | 1.0 | 0.00 | 0.39 | 0.00 | 100 | 1008.2 |
| 20260506001803 | 49 | 11 | 0.0 | 1.0 | 0.00 | 0.39 | 0.00 | 100 | 1008.2 |
| 20260506001303 | 50 | 11 | 0.0 | 0.0 | 0.00 | 0.39 | 0.00 | 100 | 1008.4 |
| 20260506000804 | 49 | 11 | 0.0 | 1.0 | 0.00 | 0.39 | 0.00 | 100 | 1008.4 |
| 20260506000304 | 50 | 11 | 0.0 | 1.0 | 0.00 | 0.39 | 0.00 | 100 | 1008.8 |
| 20260505235803 | 49 | 11 | 0.0 | 0.0 | 0.00 | 0.39 | 0.00 | 100 | 1008.8 |
| 20260505235319 | 50 | 11 | 0.0 | 0.0 | 0.00 | 0.39 | 0.00 | 100 | 1008.8 |
| 20260505234804 | 50 | 11 | 0.0 | 1.0 | 0.00 | 0.39 | 0.00 | 100 | 1008.8 |
| 20260505234304 | 50 | 11 | 0.0 | 1.0 | 0.00 | 0.39 | 0.00 | 100 | 1008.8 |
| 20260505233804 | 50 | 11 | 0.0 | 1.0 | 0.00 | 0.39 | 0.00 | 100 | 1008.8 |
| 20260505233303 | 50 | 11 | 0.0 | 1.0 | 0.00 | 0.39 | 0.00 | 100 | 1008.8 |
| 20260505232803 | 50 | 11 | 0.0 | 1.0 | 0.00 | 0.39 | 0.00 | 100 | 1008.8 |
| 20260505232305 | 50 | 11 | 0.0 | 1.0 | 0.00 | 0.39 | 0.00 | 100 | 1008.8 |
| 20260505231803 | 50 | 11 | 0.0 | 0.0 | 0.00 | 0.39 | 0.00 | 100 | 1008.8 |
| 20260505231303 | 50 | 11 | 0.0 | 1.0 | 0.00 | 0.39 | 0.00 | 100 | 1008.7 |
| 20260505230803 | 50 | 11 | 0.0 | 1.0 | 0.00 | 0.39 | 0.00 | 100 | 1008.7 |
| 20260505230304 | 50 | 11 | 0.0 | 0.0 | 0.00 | 0.39 | 0.00 | 100 | 1008.7 |
| 20260505225804 | 51 | 11 | 0.0 | 1.0 | 0.00 | 0.39 | 0.00 | 100 | 1008.6 |
| 20260505225305 | 51 | 11 | 0.0 | 0.0 | 0.00 | 0.39 | 0.00 | 100 | 1008.6 |
| 20260505224803 | 51 | 11 | 0.0 | 1.0 | 0.00 | 0.39 | 0.00 | 100 | 1008.6 |
| 20260505224304 | 51 | 11 | 0.0 | 0.0 | 0.00 | 0.39 | 0.00 | 100 | 1008.5 |
| 20260505223803 | 51 | 11 | 0.0 | 0.0 | 0.00 | 0.39 | 0.00 | 100 | 1008.5 |
| 20260505223303 | 51 | 11 | 0.0 | 1.0 | 0.00 | 0.39 | 0.00 | 100 | 1008.5 |
| 20260505222305 | 51 | 11 | 0.0 | 0.0 | 0.00 | 0.39 | 0.00 | 100 | 1008.6 |
| 20260505221804 | 51 | 11 | 0.0 | 1.0 | 0.00 | 0.39 | 0.00 | 100 | 1008.5 |
| 20260505220810 | 52 | 11 | 0.0 | 0.0 | 0.00 | 0.39 | 0.00 | 100 | 1008.5 |
| 20260505215803 | 52 | 11 | 0.0 | 0.0 | 0.00 | 0.39 | 0.39 | 100 | 1008.5 |
| 20260505215305 | 52 | 11 | 0.0 | 0.0 | 0.00 | 0.39 | 0.39 | 99 | 1008.5 |
| 20260505213803 | 53 | 11 | 0.0 | 2.0 | 0.00 | 0.39 | 0.39 | 99 | 1008.6 |
| 20260505213304 | 53 | 11 | 0.0 | 1.0 | 0.00 | 0.39 | 0.39 | 99 | 1008.4 |
| 20260505212803 | 54 | 11 | 0.0 | 1.0 | 0.00 | 0.39 | 0.39 | 98 | 1008.4 |
| 20260505212305 | 54 | 11 | 0.0 | 1.0 | 0.00 | 0.39 | 0.39 | 98 | 1008.4 |
| 20260505211303 | 54 | 11 | 0.0 | 2.0 | 0.00 | 0.39 | 0.39 | 98 | 1008.4 |
| 20260505210804 | 54 | 334 | 0.0 | 1.0 | 0.00 | 0.39 | 0.39 | 98 | 1008.4 |
| 20260505210304 | 54 | 334 | 0.0 | 1.0 | 0.00 | 0.39 | 0.39 | 98 | 1008.4 |
| 20260505205803 | 54 | 334 | 0.0 | 1.0 | 0.00 | 0.39 | 0.39 | 97 | 1008.4 |
| 20260505205305 | 54 | 334 | 1.0 | 1.0 | 0.00 | 0.39 | 0.39 | 97 | 1008.4 |
| 20260505204803 | 54 | 334 | 0.0 | 2.0 | 0.00 | 0.39 | 0.39 | 97 | 1008.4 |
| 20260505204303 | 54 | 334 | 0.0 | 2.0 | 0.00 | 0.39 | 0.39 | 96 | 1008.3 |
| 20260505203803 | 55 | 329 | 1.0 | 2.0 | 0.00 | 0.39 | 0.39 | 96 | 1008.3 |
| 20260505203303 | 55 | 333 | 1.0 | 2.0 | 0.00 | 0.39 | 0.39 | 96 | 1008.3 |
| 20260505202804 | 55 | 294 | 2.0 | 3.0 | 0.00 | 0.39 | 0.39 | 95 | 1008.3 |
| 20260505202306 | 55 | 316 | 1.0 | 5.0 | 0.00 | 0.39 | 0.39 | 96 | 1008.2 |
| 20260505200804 | 55 | 80 | 1.0 | 5.0 | 0.00 | 0.39 | 0.39 | 97 | 1008.1 |
| 20260505200303 | 55 | 126 | 0.0 | 2.0 | 0.00 | 0.39 | 0.39 | 98 | 1008.0 |
| 20260505195803 | 55 | 129 | 0.0 | 1.0 | 0.00 | 0.39 | 0.39 | 98 | 1008.0 |
| 20260505194805 | 55 | 129 | 0.0 | 1.0 | 0.00 | 0.39 | 0.39 | 99 | 1008.0 |
| 20260505194304 | 55 | 129 | 0.0 | 1.0 | 0.00 | 0.39 | 0.39 | 99 | 1007.8 |
| 20260505193303 | 56 | 124 | 0.0 | 0.0 | 0.00 | 0.39 | 0.39 | 99 | 1007.7 |
| 20260505192803 | 56 | 124 | 0.0 | 0.0 | 0.00 | 0.39 | 0.39 | 99 | 1007.7 |
| 20260505192305 | 56 | 124 | 0.0 | 1.0 | 0.00 | 0.39 | 0.39 | 100 | 1007.7 |
| 20260505191803 | 56 | 124 | 0.0 | 1.0 | 0.00 | 0.39 | 0.39 | 99 | 1007.7 |
| 20260505191303 | 56 | 124 | 0.0 | 1.0 | 0.00 | 0.39 | 0.39 | 100 | 1007.7 |
| 20260505190804 | 56 | 124 | 0.0 | 1.0 | 0.00 | 0.39 | 0.39 | 99 | 1007.6 |
| 20260505190304 | 56 | 124 | 0.0 | 1.0 | 0.00 | 0.39 | 0.39 | 99 | 1007.6 |
| 20260505185804 | 56 | 124 | 0.0 | 0.0 | 0.00 | 0.39 | 0.39 | 99 | 1007.5 |
| 20260505184804 | 56 | 124 | 0.0 | 0.0 | 0.01 | 0.39 | 0.39 | 99 | 1007.5 |
| 20260505184303 | 56 | 124 | 0.0 | 0.0 | 0.01 | 0.39 | 0.39 | 98 | 1007.5 |
| 20260505183804 | 56 | 124 | 0.0 | 1.0 | 0.02 | 0.39 | 0.39 | 98 | 1007.5 |
| 20260505183304 | 57 | 124 | 0.0 | 1.0 | 0.02 | 0.39 | 0.39 | 98 | 1007.5 |
| 20260505182803 | 57 | 124 | 0.0 | 0.0 | 0.03 | 0.39 | 0.39 | 98 | 1007.5 |
| 20260505182306 | 57 | 124 | 0.0 | 1.0 | 0.04 | 0.39 | 0.39 | 98 | 1007.5 |
| 20260505181803 | 57 | 124 | 0.0 | 1.0 | 0.05 | 0.39 | 0.39 | 98 | 1007.5 |
| 20260505181303 | 57 | 124 | 0.0 | 1.0 | 0.06 | 0.39 | 0.39 | 98 | 1007.5 |
| 20260505180804 | 58 | 124 | 0.0 | 1.0 | 0.06 | 0.39 | 0.39 | 98 | 1007.4 |
| 20260505180304 | 58 | 124 | 0.0 | 1.0 | 0.06 | 0.39 | 0.39 | 98 | 1007.4 |
| 20260505175804 | 58 | 124 | 0.0 | 2.0 | 0.06 | 0.39 | 0.39 | 98 | 1007.4 |
| 20260505175305 | 58 | 124 | 1.0 | 2.0 | 0.06 | 0.39 | 0.39 | 98 | 1007.5 |
| 20260505174803 | 58 | 124 | 0.0 | 1.0 | 0.05 | 0.38 | 0.38 | 96 | 1007.5 |
| 20260505174304 | 58 | 124 | 0.0 | 0.0 | 0.05 | 0.38 | 0.38 | 96 | 1007.5 |
| 20260505173804 | 58 | 124 | 0.0 | 1.0 | 0.04 | 0.37 | 0.37 | 96 | 1007.5 |
| 20260505173303 | 58 | 124 | 0.0 | 2.0 | 0.03 | 0.36 | 0.36 | 96 | 1007.5 |
| 20260505172305 | 59 | 124 | 0.0 | 1.0 | 0.02 | 0.35 | 0.35 | 92 | 1007.2 |
| 20260505171803 | 60 | 124 | 1.0 | 2.0 | 0.01 | 0.34 | 0.34 | 92 | 1007.2 |
| 20260505171304 | 60 | 124 | 0.0 | 1.0 | 0.00 | 0.33 | 0.33 | 87 | 1007.2 |
| 20260505170803 | 60 | 124 | 0.0 | 1.0 | 0.00 | 0.33 | 0.33 | 86 | 1007.2 |
| 20260505170303 | 61 | 124 | 0.0 | 1.0 | 0.00 | 0.33 | 0.33 | 86 | 1007.2 |
| 20260505165804 | 61 | 124 | 0.0 | 1.0 | 0.00 | 0.33 | 0.33 | 86 | 1007.2 |
| 20260505165306 | 62 | 124 | 1.0 | 2.0 | 0.00 | 0.33 | 0.33 | 87 | 1007.2 |
| 20260505164803 | 62 | 106 | 1.0 | 2.0 | 0.00 | 0.33 | 0.33 | 85 | 1007.2 |
| 20260505164303 | 61 | 106 | 0.0 | 1.0 | 0.00 | 0.33 | 0.33 | 86 | 1007.2 |
| 20260505163803 | 61 | 106 | 0.0 | 1.0 | 0.00 | 0.33 | 0.33 | 87 | 1007.2 |
| 20260505163304 | 61 | 106 | 0.0 | 0.0 | 0.00 | 0.33 | 0.33 | 88 | 1007.3 |
| 20260505162804 | 61 | 106 | 0.0 | 1.0 | 0.00 | 0.33 | 0.33 | 87 | 1007.3 |
| 20260505162306 | 62 | 105 | 0.0 | 3.0 | 0.00 | 0.33 | 0.33 | 84 | 1007.3 |
| 20260505161804 | 63 | 106 | 0.0 | 3.0 | 0.00 | 0.33 | 0.33 | 83 | 1007.3 |
| 20260505161303 | 63 | 106 | 1.0 | 2.0 | 0.00 | 0.33 | 0.33 | 83 | 1007.3 |
| 20260505160803 | 63 | 106 | 1.0 | 2.0 | 0.00 | 0.33 | 0.33 | 85 | 1007.4 |
| 20260505160303 | 63 | 107 | 1.0 | 2.0 | 0.00 | 0.33 | 0.33 | 85 | 1007.5 |
| 20260505153303 | 63 | 40 | 0.0 | 3.0 | 0.01 | 0.33 | 0.33 | 84 | 1007.5 |
| 20260505152804 | 63 | 40 | 0.0 | 1.0 | 0.01 | 0.33 | 0.33 | 85 | 1007.5 |
| 20260505151803 | 61 | 40 | 1.0 | 2.0 | 0.01 | 0.33 | 0.33 | 89 | 1007.8 |
| 20260505151304 | 61 | 41 | 1.0 | 3.0 | 0.01 | 0.33 | 0.33 | 91 | 1007.8 |
| 20260505150803 | 60 | 36 | 1.0 | 5.0 | 0.01 | 0.33 | 0.33 | 90 | 1007.8 |
| 20260505150304 | 59 | 314 | 1.0 | 2.0 | 0.01 | 0.33 | 0.33 | 92 | 1007.8 |